Погода в Малмыже

Россия / Хабаровский край     49°51′09″N   136°45′52″E
темп.,
°C
ветер,
м/с
пор.,
м/с
влажн.,
%
обл.,
%
осадки,
мм/ч
давл.,
гПа
погр.,
м
18 мая, ср
ср1801:00+7св2288100 0.4 100551
04:00+7всв229457 1.3 100549
07:00+7зюз228913 0.1 1006127
10:00+10зюз357416 0.6 1007665
13:00+12сз355295 0.3 10071186
16:00+9с577298 0.6 1009260
19:00+10ссв236469 0.0 1010292
22:00+7ююв337364 0.0 101132
19 мая, чт
чт1901:00+6ю1177100 0.0 101011
04:00+6ююз2274100 0.0 101030
07:00+6ю497199 0.0 1008177
10:00+10ююз71359100 0.1 1006475
13:00+12зюз71267100 0.3 1004992
16:00+12зюз476872 0.9 1004674
19:00+6ссв71493100 3.1 1006362
22:00+5св7148548 8.6 1008361
20 мая, пт
пт2001:00+5ссв6118811 0.0 1009280
04:00+4ссв5108713 0.0 1009241
07:00+4св47855 0.0 1010226
10:00+7св2375100 0.0 1009355
13:00+10ююз1166100 0.0 1008558
16:00+11зсз3366100 0.0 1007537
19:00+11всв2371100 0.0 100679
22:00+9ююв2282100 0.3 100553
21 мая, сб
сб2101:00+7в2294100 1.4 100437
04:00+7св4698100 1.9 1001118
07:00+7св5899100 9.9 1000189
10:00+7ссв4699100 11.0 999175
13:00+6ссв71296100 2.9 1001262
16:00+7с61194100 5.4 1003408
19:00+7ссв2495100 0.2 1004191
22:00+6св239698 0.3 100698
22 мая, вс
вс2201:00+5св4992100 0.0 1007312
04:00+5св4891100 0.0 1008197
07:00+5ссв4891100 0.0 1009315
10:00+9св587687 0.0 1009639
13:00+10св686795 0.0 1010787
16:00+11всв68631 0.0 1008697
19:00+11всв476913 0.0 1009313
22:00+8с458220 0.0 101056